Location: Auttagershofen
(48.1940°N, 10.0237°E)
Time: 05:56:18
(UTC+00:00)

Cosmos 2084 Rocket - Pass Details

Date: 18 January 2026
Orbit: 541 x 571 km, 62.8° (Epoch: 17 February)

Event Time Altitude Azimuth Distance (km) Brightness Sun altitude
Exits shadow 05:50:31 16° 309° (NW) 1,532 5.0 -11.9°
Maximum altitude 05:53:47 58° 233° (SW) 666 3.5 -11.4°
Drops below altitude 10° 05:57:56 10° 154° (SSE) 1,870 6.7 -10.7°
Sets 06:00:11 0° 151° (SSE) 2,765 7.7 -10.4°
